レモン彗星

C/2019 S4 ( Lemmon )

English version
Home page
Updated on January 20, 2022

---------------------------------------------------------------------

・ プロフィール

発見日 2019年9月19日
発見光度 21.4等
発見者 D. Rankin (Mount Lemmon Survey)

・ 写真集

・ 軌道要素

Epoch 2020 Apr. 21.0 TT = JDT 2458960.5
T 2020 Apr. 7.94189 TT                                  Rudenko
q   3.4417356            (2000.0)            P               Q
z  +0.0041418      Peri.   71.35547     +0.17417490     -0.41759275
 +/-0.0000011      Node    63.16899     -0.12879428     -0.90750830
e   0.9857452      Incl.   92.02501     +0.97625567     -0.04522145
From 260 observations 2019 Sept. 17-2021 June 3, mean residual 0".5.

・ 光度変化

        m1 = 1.7 + 5 logΔ + 25.0 log r(t - 100)

---------------------------------------------------------------------

軌道要素はM.P.E.C. 2021-S45に掲載されたものです。
光度グラフはComet for Windowsで作成したものです。

---------------------------------------------------------------------

Copyright(C) Seiichi Yoshida (comet@aerith.net). All rights reserved.